Jackson Hawkins Field, MS

5:59 PM CDT on June 24, 2018 (GMT -0500)
Hawkins

Weather History for KHKS - October, 2017

Change the Weather History Date:

Thursday, October 12, 2017

  Actual Average (KJAN) Record (KJAN)
Temperature  
Mean Temperature 72 °F -  
Max Temperature 85 °F 80 °F 93 °F (1928)
Min Temperature 58 °F 53 °F 35 °F (1932)
Cooling Degree Days 7    
Month to date cooling degree days 139  
Year to date cooling degree days 2449  
Growing Degree Days 20 (Base 50)    
Moisture  
Dew Point 58 °F    
Average Humidity 67    
Maximum Humidity 100    
Minimum Humidity 34    
Precipitation  
Precipitation 0.00 in - - ()
Month to date precipitation 0.38  
Year to date precipitation 51.93  
Sea Level Pressure  
Sea Level Pressure 30.07 in    
Wind  
Wind Speed 2 mph (North)    
Max Wind Speed 8 mph    
Max Gust Speed 14 mph    
Visibility 10 miles    
Events      
Averages and records for this station are not official NWS values.
T = Trace of Precipitation, MM = Missing Value Source: NWS Daily Summary

Daily Weather History Graph

Daily Weather History Graph

Search for Another Location

Airport or City:

Astronomy

Oct. 12, 2017 Rise Set
Actual Time 7:02 AM CDT 6:31 PM CDT
Civil Twilight 6:37 AM CDT 6:56 PM CDT
Nautical Twilight 6:09 AM CDT 7:24 PM CDT
Astronomical Twilight 5:41 AM CDT 7:52 PM CDT
Moon No Moon Rise 2:02 PM CDT (10/12)
Length of Visible Light 12h 18m
Length of Day
11h 28m
Waning Gibbous, 48% of the Moon is Illuminated
Oct 12
Waning Gibbous
Oct 19
New
Oct 27
First Quarter
Nov 4
Full
Nov 10
Last Quarter

Hourly Weather History & Observations

Time (CDT) Temp. Heat Index Dew Point Humidity Pressure Visibility Wind Dir Wind Speed Gust Speed Precip Events Conditions
12:53 AM 62.1 °F - 57.9 °F 86% 30.08 in 10.0 mi Calm Calm - N/A   Clear
1:53 AM 61.0 °F - 57.9 °F 90% 30.08 in 10.0 mi Calm Calm - N/A   Clear
2:53 AM 61.0 °F - 57.9 °F 90% 30.07 in 10.0 mi North 3.5 mph - N/A   Clear
3:53 AM 60.1 °F - 59.0 °F 96% 30.06 in 10.0 mi Calm Calm - N/A   Clear
4:53 AM 62.1 °F - 59.0 °F 90% 30.06 in 10.0 mi NNE 3.5 mph - N/A   Clear
5:53 AM 60.1 °F - 59.0 °F 96% 30.07 in 10.0 mi Calm Calm - N/A   Clear
6:53 AM 57.9 °F - 57.9 °F 100% 30.09 in 10.0 mi Calm Calm - N/A   Clear
7:53 AM 61.0 °F - 60.1 °F 97% 30.10 in 10.0 mi Calm Calm - N/A   Clear
8:53 AM 66.0 °F - 60.1 °F 81% 30.11 in 10.0 mi ENE 4.6 mph - N/A   Clear
9:53 AM 70.0 °F - 59.0 °F 68% 30.12 in 10.0 mi ENE 5.8 mph - N/A   Clear
10:53 AM 73.9 °F - 59.0 °F 59% 30.11 in 10.0 mi North 4.6 mph - N/A   Clear
11:53 AM 77.0 °F - 57.9 °F 52% 30.10 in 10.0 mi North 4.6 mph - N/A   Clear
12:53 PM 80.1 °F 80.2 °F 55.9 °F 43% 30.09 in 10.0 mi Variable 3.5 mph - N/A   Clear
1:53 PM 82.0 °F 81.6 °F 55.9 °F 41% 30.06 in 10.0 mi Variable 4.6 mph - N/A   Clear
2:53 PM 82.9 °F 81.9 °F 54.0 °F 37% 30.04 in 10.0 mi Calm Calm - N/A   Clear
3:53 PM 84.0 °F 82.5 °F 53.1 °F 34% 30.03 in 10.0 mi North 5.8 mph - N/A   Clear
4:53 PM 82.9 °F - 52.0 °F 34% 30.03 in 10.0 mi NW 4.6 mph - N/A   Clear
5:53 PM 81.0 °F 80.5 °F 54.0 °F 39% 30.03 in 10.0 mi North 4.6 mph - N/A   Clear
6:53 PM 71.1 °F - 60.1 °F 68% 30.04 in 10.0 mi Calm Calm - N/A   Clear
7:53 PM 66.9 °F - 61.0 °F 81% 30.05 in 10.0 mi Calm Calm - N/A   Clear
8:53 PM 64.9 °F - 60.1 °F 84% 30.06 in 10.0 mi Calm Calm - N/A   Clear
9:53 PM 64.0 °F - 60.1 °F 87% 30.07 in 10.0 mi Calm Calm - N/A   Clear
10:53 PM 63.0 °F - 60.1 °F 90% 30.07 in 10.0 mi Calm Calm - N/A   Clear
11:53 PM 62.1 °F - 60.1 °F 93% 30.08 in 10.0 mi Calm Calm - N/A   Clear